Wind_Speed
28 26 28 34 35 33 33 32 33 41 47 44 39 39 35 40 38 34 35 41 41 39 39 39 39 40 40 39 40 41 42 43 44 45 44 45 46 47
28 29 33 39 37 33 29 32 34 35 44 46 45 44 47 43 43 38 41 39 39 37 38 38 38 37 40 41 44 44 45 45 46 46 45 44 42 42
30 35 39 37 33 32 29 29 31 32 38 54 48 48 49 52 53 50 43 38 39 38 35 34 39 42 44 49 48 46 44 45 44 43 44 43 41 42
37 37 38 35 30 27 29 32 36 38 37 40 50 49 49 49 48 48 43 40 39 40 39 41 45 48 47 42 43 42 41 42 42 42 42 42 42 42
36 38 37 30 29 29 32 36 37 32 31 36 45 50 45 43 43 39 49 44 42 40 41 42 42 40 38 37 40 42 41 41 40 41 41 41 40 35
36 36 33 30 30 32 34 34 33 38 42 43 43 40 43 37 41 47 52 42 41 42 43 42 36 33 40 39 38 38 38 38 37 37 40 38 36 34
36 35 34 29 28 27 31 37 39 40 42 40 40 35 45 47 45 44 45 43 50 41 39 37 37 44 47 40 37 35 33 33 34 37 37 38 35 33
35 37 35 34 31 32 35 35 33 38 44 42 40 40 47 43 44 44 43 42 44 39 36 49 41 45 43 42 37 34 36 42 38 37 37 34 35 35
34 37 37 36 35 39 39 37 40 39 33 38 42 43 42 46 47 42 44 43 44 46 43 46 41 41 43 44 35 37 39 39 39 39 38 39 38 37
35 33 33 37 39 37 41 43 44 40 39 36 36 40 42 41 44 43 43 48 45 41 37 44 42 44 45 43 37 36 36 35 35 34 35 35 37 36
33 31 34 35 37 38 40 43 42 40 43 36 34 35 40 37 35 38 41 40 41 40 43 40 43 45 44 43 35 25 26 30 32 33 33 34 34 35
37 40 39 36 36 36 38 39 38 45 41 37 44 42 37 36 32 33 36 38 39 41 40 36 40 41 30 34 23 37 36 36 33 34 35 35 34 35
39 41 45 39 35 38 35 38 36 36 38 40 38 40 38 38 37 33 31 34 39 41 36 35 37 38 30 35 37 39 37 38 33 27 25 26 31 37
34 44 41 35 38 36 33 30 31 31 36 37 39 38 39 40 35 32 30 29 30 34 26 24 27 29 31 31 35 37 34 28 22 26 19 14 24 37
39 35 33 37 35 32 30 29 30 36 36 38 38 39 38 35 35 33 30 29 30 27 27 27 29 30 25 25 28 34 36 34 24 20 12 9 4 14
37 36 39 35 30 30 33 36 36 34 33 36 37 37 36 37 35 32 32 32 33 35 30 30 26 20 20 13 19 29 26 21 23 16 22 15 9 9
35 38 37 35 37 37 37 37 37 37 37 37 36 37 37 36 35 31 31 31 31 34 32 30 23 15 10 8 21 23 20 16 16 21 32 35 30 17
31 33 34 34 35 36 38 40 39 38 37 34 36 36 36 35 35 34 30 31 30 28 27 25 26 19 13 10 20 22 15 22 23 27 32 37 40 38
30 32 33 34 35 37 39 39 39 37 34 34 37 35 34 35 34 33 30 28 28 26 23 21 21 22 18 17 24 18 19 27 31 36 39 41 39 39
31 32 34 34 35 37 38 37 36 35 33 36 35 34 35 35 33 31 27 26 26 23 22 18 19 14 13 14 17 28 22 30 35 36 37 43 43 39
33 33 33 34 34 36 36 35 34 34 33 34 34 35 35 34 31 27 25 22 20 19 20 18 17 9 10 19 23 28 28 27 30 34 35 38 38 44
32 33 33 32 33 35 34 34 33 33 33 33 33 35 34 31 27 24 22 21 18 15 13 12 11 13 19 22 23 22 25 24 24 25 26 30 28 30
32 33 32 32 34 34 32 32 32 32 30 32 32 33 31 29 24 20 19 16 14 13 10 10 10 11 17 20 20 22 24 28 33 37 33 33 33 35
Wind_Direction
320 318 316 316 316 310 305 305 305 307 305 308 309 311 309 308 308 307 303 302 301 296 296 293 291 290 288 289 287 286 284 280 276 277 275 274 271 269
322 319 315 318 315 312 308 300 302 300 298 304 307 307 310 311 309 304 303 303 300 296 296 293 290 290 291 287 288 285 284 281 275 274 272 269 270 269
322 319 316 319 318 313 313 313 309 303 297 302 304 308 309 310 314 312 310 303 296 295 295 293 293 291 290 290 285 283 280 278 278 277 277 277 275 270
318 319 323 325 320 319 318 315 309 309 298 293 300 306 305 305 313 308 306 305 304 300 294 293 292 292 290 286 284 282 281 278 276 274 271 269 270 271
318 322 325 323 321 321 318 314 310 305 302 300 300 301 299 310 308 301 309 305 300 296 294 296 294 289 288 287 287 284 280 278 277 273 271 268 268 268
318 322 325 327 322 318 314 313 311 309 306 300 300 304 305 310 308 308 304 302 298 300 297 298 296 290 289 290 287 282 279 276 274 271 267 269 269 266
317 323 329 326 316 312 313 311 309 306 304 305 303 307 311 311 308 306 299 304 304 302 301 301 299 295 298 298 293 287 283 281 276 276 267 264 265 267
318 324 327 325 320 313 313 311 307 309 307 306 310 309 306 305 305 302 301 306 304 308 303 299 299 296 299 299 294 284 282 283 278 274 275 269 266 264
319 323 322 321 318 319 319 312 308 307 307 310 305 303 301 303 310 309 308 303 300 302 304 297 298 294 296 297 289 286 284 280 277 274 273 267 264 263
322 321 319 319 320 320 316 312 314 320 315 311 306 303 305 308 306 304 303 302 302 301 300 291 297 294 305 301 296 291 287 285 281 273 267 263 257 254
323 319 320 321 321 318 314 320 322 318 321 313 308 306 306 306 304 306 306 306 302 302 307 293 297 297 298 305 309 305 288 287 285 280 275 271 266 258
321 324 327 323 321 316 322 323 322 320 319 319 313 313 317 322 315 310 310 304 301 302 319 301 302 306 303 301 301 305 305 303 292 283 276 267 258 251
325 326 327 324 323 324 320 318 318 318 317 315 322 326 323 320 324 326 324 318 305 300 327 311 304 307 298 300 306 311 314 311 305 300 287 267 249 239
324 324 325 324 323 322 321 324 321 319 326 329 325 321 321 326 331 334 336 336 334 325 323 331 317 316 306 305 305 321 330 326 321 326 321 293 247 237
324 326 322 325 325 326 330 327 330 337 330 326 321 322 328 333 335 337 339 343 342 343 334 324 326 314 304 289 305 325 330 334 341 349 17 38 184 214
333 325 324 327 332 332 339 343 339 332 327 326 326 333 337 338 337 340 338 341 339 337 342 344 336 320 308 299 319 329 337 332 353 35 58 77 115 165
325 321 332 337 335 337 340 339 338 336 334 337 337 339 340 341 342 345 345 342 333 335 347 355 2 342 337 316 341 351 349 16 39 64 69 74 78 100
324 333 334 332 331 336 336 337 339 339 341 342 344 344 342 345 346 348 350 346 337 346 353 356 6 22 35 37 24 1 37 52 64 74 72 74 75 72
336 336 331 332 335 336 337 335 334 340 343 345 345 345 349 350 350 352 352 352 350 353 359 1 9 15 29 15 37 30 66 75 72 76 74 72 73 80
339 333 334 336 337 337 338 337 338 342 344 346 347 352 353 351 350 351 353 355 351 357 4 10 17 24 40 35 40 51 73 88 85 79 74 82 80 87
337 339 339 339 339 340 340 339 340 342 342 346 351 352 354 353 350 351 354 1 359 8 5 14 22 37 79 82 70 66 63 76 85 86 85 78 74 79
341 340 340 339 340 341 341 341 342 344 346 349 350 352 354 355 352 352 358 1 7 10 13 25 46 71 81 80 74 74 74 73 76 77 80 86 82 77
342 340 339 340 342 342 342 342 342 343 345 348 349 351 354 354 356 2 5 8 11 16 25 36 62 76 78 80 84 83 86 87 87 88 87 89 92 95
Height
1442 1438 1435 1431 1427 1423 1419 1416 1409 1390 1379 1378 1377 1376 1373 1369 1365 1362 1357 1351 1346 1342 1338 1334 1330 1326 1322 1319 1316 1313 1310 1307 1304 1301 1299 1299 1297 1296
1436 1432 1429 1424 1419 1415 1412 1408 1404 1397 1378 1376 1369 1366 1363 1358 1354 1351 1347 1341 1336 1332 1328 1323 1319 1315 1312 1307 1304 1301 1298 1294 1291 1289 1286 1284 1282 1280
1430 1426 1421 1416 1411 1407 1403 1400 1396 1392 1382 1362 1362 1357 1351 1346 1341 1338 1335 1331 1325 1322 1318 1313 1309 1304 1299 1295 1290 1286 1283 1280 1277 1274 1273 1270 1268 1267
1423 1419 1414 1408 1404 1400 1397 1392 1388 1383 1377 1365 1354 1349 1344 1339 1333 1326 1322 1319 1316 1312 1309 1303 1298 1292 1285 1280 1276 1273 1269 1266 1264 1262 1260 1259 1256 1254
1418 1413 1407 1403 1398 1394 1390 1385 1380 1374 1368 1361 1349 1343 1337 1332 1325 1319 1314 1308 1304 1301 1295 1290 1284 1278 1272 1267 1263 1259 1256 1252 1249 1248 1247 1245 1243 1241
1412 1408 1402 1397 1392 1388 1384 1379 1373 1366 1359 1352 1343 1335 1330 1324 1319 1310 1299 1297 1290 1287 1281 1276 1271 1266 1262 1255 1249 1245 1241 1239 1236 1234 1233 1232 1231 1231
1406 1402 1397 1392 1388 1384 1379 1372 1366 1358 1350 1343 1335 1328 1322 1314 1310 1302 1293 1285 1277 1276 1268 1262 1259 1252 1245 1240 1236 1231 1228 1225 1223 1221 1219 1218 1218 1218
1400 1395 1390 1386 1381 1376 1371 1366 1360 1352 1345 1337 1328 1321 1314 1307 1300 1293 1285 1278 1264 1269 1261 1248 1249 1238 1233 1229 1224 1220 1216 1213 1210 1208 1205 1205 1205 1205
1394 1388 1383 1378 1374 1367 1360 1355 1350 1345 1339 1333 1323 1315 1306 1300 1291 1284 1278 1272 1263 1255 1252 1237 1236 1227 1222 1216 1212 1208 1202 1197 1194 1192 1191 1191 1191 1192
1388 1383 1377 1371 1366 1361 1352 1345 1339 1333 1329 1323 1316 1307 1300 1294 1288 1279 1269 1260 1253 1247 1243 1227 1224 1216 1209 1204 1197 1192 1186 1183 1180 1177 1176 1176 1176 1176
1382 1377 1372 1365 1360 1354 1345 1336 1329 1323 1319 1314 1307 1301 1293 1286 1279 1269 1261 1254 1243 1237 1231 1222 1213 1204 1199 1190 1183 1180 1176 1173 1168 1165 1163 1161 1161 1163
1375 1369 1364 1360 1353 1346 1339 1331 1322 1316 1309 1302 1296 1289 1282 1274 1269 1263 1255 1247 1238 1228 1220 1216 1206 1200 1186 1179 1175 1171 1165 1159 1154 1150 1146 1145 1146 1148
1369 1362 1356 1351 1345 1340 1334 1326 1319 1311 1303 1296 1288 1280 1273 1267 1260 1253 1247 1240 1232 1222 1213 1209 1200 1194 1189 1174 1165 1161 1155 1147 1140 1134 1130 1128 1128 1131
1365 1358 1350 1345 1339 1333 1326 1320 1314 1307 1297 1289 1282 1274 1267 1259 1252 1245 1239 1232 1225 1217 1209 1204 1196 1190 1181 1173 1163 1155 1147 1139 1133 1124 1117 1112 1110 1112
1362 1354 1345 1340 1332 1325 1319 1314 1308 1299 1292 1285 1278 1269 1262 1254 1246 1239 1232 1226 1218 1212 1205 1199 1191 1184 1176 1171 1164 1154 1143 1133 1128 1121 1113 1105 1101 1103
1354 1346 1341 1334 1328 1322 1314 1307 1302 1296 1289 1281 1273 1264 1256 1248 1241 1235 1228 1220 1213 1205 1200 1193 1185 1177 1171 1168 1164 1154 1146 1139 1130 1122 1114 1107 1103 1105
1350 1342 1335 1328 1322 1316 1310 1304 1297 1290 1284 1276 1268 1260 1252 1245 1238 1231 1225 1218 1211 1204 1195 1188 1181 1174 1170 1167 1161 1155 1148 1141 1135 1128 1120 1114 1110 1110
1346 1339 1332 1326 1320 1313 1306 1299 1293 1286 1279 1272 1264 1257 1250 1242 1234 1228 1222 1216 1209 1203 1196 1190 1183 1176 1172 1169 1165 1158 1153 1147 1142 1136 1129 1124 1120 1119
1343 1336 1330 1323 1317 1310 1304 1297 1289 1283 1276 1269 1262 1255 1248 1240 1233 1226 1220 1214 1209 1203 1197 1191 1186 1181 1176 1172 1168 1164 1159 1153 1150 1144 1141 1136 1133 1132
1340 1334 1327 1320 1314 1307 1301 1294 1286 1279 1272 1266 1259 1252 1246 1239 1232 1226 1220 1215 1209 1204 1198 1193 1189 1186 1182 1179 1175 1172 1168 1162 1157 1156 1153 1149 1147 1147
1335 1329 1324 1317 1311 1304 1298 1290 1283 1276 1270 1264 1257 1250 1244 1238 1231 1226 1221 1216 1212 1206 1201 1196 1193 1190 1187 1184 1181 1179 1177 1174 1171 1167 1166 1163 1162 1161
1332 1326 1320 1314 1308 1301 1294 1287 1280 1273 1267 1261 1255 1249 1243 1237 1232 1227 1221 1216 1213 1209 1205 1202 1199 1197 1193 1190 1188 1187 1186 1184 1182 1180 1179 1177 1176 1177
1329 1323 1316 1311 1305 1297 1291 1284 1277 1271 1266 1260 1254 1248 1242 1236 1233 1228 1223 1219 1215 1212 1208 1205 1203 1201 1199 1197 1196 1195 1194 1193 1193 1191 1192 1193 1192 1193